Location: Zagreb
(45.8000°N, 16.0000°E)
Time: 19:30:08
(UTC+01:00)

YUBILEINY - Pass Details

Date: 03 November 2020
Orbit: 1478 x 1509 km, 82.5° (Epoch: 01 December)

Event Time Altitude Azimuth Distance (km) Brightness Sun altitude
Rises 18:38:07 0° 357° (N) 4,611 ? -21.1°
Reaches altitude 10° 18:42:51 10° 19° (NNE) 3,627 ? -21.9°
Enters shadow 18:45:48 14° 39° (NE) 3,287 ? -22.4°
